TimeCST,TemperatureF,Dew PointF,Humidity,Sea Level PressureIn,VisibilityMPH,Wind Direction,Wind SpeedMPH,Gust SpeedMPH,PrecipitationIn,Events,Conditions,WindDirDegrees,DateUTC
12:54 AM,25.0,15.1,66,29.65,10.0,WNW,4.6,-,N/A,,Overcast,290,2014-01-14 06:54:00
1:54 AM,25.0,15.1,66,29.65,10.0,WSW,3.5,-,N/A,,Overcast,240,2014-01-14 07:54:00
2:54 AM,24.1,14.0,65,29.65,10.0,SW,4.6,-,N/A,,Overcast,230,2014-01-14 08:54:00
3:54 AM,21.9,14.0,72,29.65,10.0,Calm,Calm,-,N/A,,Overcast,0,2014-01-14 09:54:00
4:54 AM,19.9,14.0,78,29.66,10.0,Calm,Calm,-,N/A,,Overcast,0,2014-01-14 10:54:00
5:54 AM,19.9,14.0,78,29.66,10.0,Calm,Calm,-,N/A,,Overcast,0,2014-01-14 11:54:00
6:54 AM,19.0,14.0,81,29.67,7.0,Calm,Calm,-,N/A,,Overcast,0,2014-01-14 12:54:00
7:54 AM,23.0,14.0,68,29.67,10.0,NE,4.6,-,N/A,,Overcast,40,2014-01-14 13:54:00
8:54 AM,23.0,15.1,72,29.68,7.0,Variable,3.5,-,N/A,,Overcast,0,2014-01-14 14:54:00
9:36 AM,24.8,15.8,69,29.64,2.5,ENE,5.8,-,0.00,Snow,Light Snow,60,2014-01-14 15:36:00
9:54 AM,23.0,16.0,74,29.70,1.8,NE,9.2,-,0.00,Snow,Light Snow,40,2014-01-14 15:54:00
10:13 AM,21.2,17.6,86,29.64,0.8,NE,6.9,-,0.00,Snow,Light Snow,50,2014-01-14 16:13:00
10:29 AM,21.2,17.6,86,29.64,0.5,NE,8.1,-,0.00,Snow,Snow,50,2014-01-14 16:29:00
10:54 AM,23.0,18.0,81,29.70,0.5,NNE,5.8,-,0.00,Snow,Snow,20,2014-01-14 16:54:00
11:49 AM,23.0,19.4,86,29.64,0.2,NNE,8.1,17.3,0.00,Fog-Snow,Snow,20,2014-01-14 17:49:00
11:54 AM,21.9,18.0,85,29.69,0.2,NNE,15.0,21.9,0.00,Fog-Snow,Snow,20,2014-01-14 17:54:00
12:01 PM,21.2,17.6,86,29.63,0.2,NNE,12.7,21.9,0.00,Fog-Snow,Snow,20,2014-01-14 18:01:00
12:26 PM,21.2,17.6,86,29.63,0.5,NNE,12.7,21.9,0.00,Fog-Snow,Snow,20,2014-01-14 18:26:00
12:47 PM,21.2,17.6,86,29.63,1.0,NNE,12.7,24.2,0.00,Snow,Light Snow,20,2014-01-14 18:47:00
12:54 PM,21.9,17.1,82,29.69,1.0,NNE,10.4,-,0.00,Snow,Light Snow,20,2014-01-14 18:54:00
1:34 PM,21.2,17.6,86,29.64,0.8,North,13.8,-,0.00,Snow,Light Snow,10,2014-01-14 19:34:00
1:46 PM,21.2,17.6,86,29.64,0.8,North,12.7,20.7,0.00,Snow,Light Snow,10,2014-01-14 19:46:00
1:54 PM,21.0,17.1,85,29.70,0.8,North,17.3,-,0.00,Snow,Light Snow,360,2014-01-14 19:54:00
2:22 PM,19.4,15.8,86,29.66,0.8,North,20.7,28.8,0.00,Snow,Light Snow,10,2014-01-14 20:22:00
2:54 PM,19.9,15.1,81,29.73,0.5,North,13.8,23.0,0.00,Snow,Snow,10,2014-01-14 20:54:00
3:01 PM,19.4,15.8,86,29.67,0.5,North,16.1,23.0,0.00,Snow,Snow,10,2014-01-14 21:01:00
3:54 PM,18.0,12.9,81,29.76,0.8,North,18.4,27.6,0.00,Snow,Light Snow,360,2014-01-14 21:54:00
3:59 PM,17.6,12.2,79,29.70,1.0,North,19.6,-,0.00,Snow,Light Snow,360,2014-01-14 21:59:00
4:24 PM,17.6,12.2,79,29.71,2.5,North,21.9,29.9,0.00,Snow,Light Snow,360,2014-01-14 22:24:00
4:41 PM,17.6,12.2,79,29.72,3.0,North,21.9,-,0.00,,Overcast,350,2014-01-14 22:41:00
4:54 PM,18.0,10.9,74,29.79,3.0,North,18.4,28.8,0.00,Snow,Light Snow,360,2014-01-14 22:54:00
5:19 PM,17.6,10.4,73,29.74,2.5,North,18.4,28.8,0.00,Snow,Light Snow,360,2014-01-14 23:19:00
5:38 PM,17.6,10.4,73,29.75,1.5,North,20.7,31.1,0.00,Snow,Light Snow,350,2014-01-14 23:38:00
5:54 PM,17.1,10.9,77,29.82,1.2,North,19.6,-,0.00,Snow,Light Snow,360,2014-01-14 23:54:00
6:54 PM,16.0,10.0,77,29.84,1.8,North,18.4,27.6,0.00,Snow,Light Snow,350,2014-01-15 00:54:00
6:57 PM,15.8,10.4,79,29.78,2.0,North,21.9,27.6,0.00,Snow,Light Snow,360,2014-01-15 00:57:00
7:54 PM,15.1,9.0,77,29.86,7.0,NNW,15.0,27.6,0.00,,Overcast,340,2014-01-15 01:54:00
8:54 PM,15.1,8.1,74,29.87,5.0,NNW,19.6,25.3,0.00,Snow,Light Snow,330,2014-01-15 02:54:00
9:54 PM,15.1,8.1,74,29.88,6.0,NNW,17.3,24.2,0.00,Snow,Light Snow,340,2014-01-15 03:54:00
10:54 PM,14.0,8.1,77,29.89,5.0,NNW,16.1,-,0.00,Snow,Light Snow,340,2014-01-15 04:54:00
11:54 PM,12.9,3.9,67,29.90,10.0,North,15.0,-,0.00,,Overcast,350,2014-01-15 05:54:00